QPF
0.02 0.01 0.01 0.01 0.01 0.01 0.01 0.00 0.00 0.00 0.00 0.00 0.00 0.00 0.00 0.00 0.01 0.01 0.01 0.00 0.00 0.00 0.00 0.00 0.00 0.00 0.00 0.00 0.00 0.00 0.00 0.00 0.00 0.00 0.00 0.00 0.00 0.00 0.00 0.00 0.00 0.00 0.00 0.00
0.01 0.01 0.01 0.01 0.00 0.00 0.00 0.00 0.00 0.00 0.00 0.00 0.00 0.00 0.00 0.00 0.01 0.01 0.01 0.00 0.00 0.00 0.00 0.00 0.00 0.00 0.00 0.00 0.00 0.00 0.00 0.00 0.00 0.00 0.00 0.00 0.00 0.00 0.00 0.00 0.00 0.00 0.00 0.00
0.01 0.01 0.01 0.00 0.00 0.00 0.00 0.00 0.00 0.00 0.00 0.00 0.00 0.00 0.00 0.00 0.01 0.01 0.01 0.00 0.00 0.00 0.00 0.00 0.00 0.00 0.00 0.00 0.00 0.00 0.00 0.00 0.00 0.00 0.00 0.00 0.00 0.00 0.00 0.00 0.00 0.00 0.00 0.00
0.01 0.01 0.01 0.00 0.00 0.00 0.00 0.00 0.00 0.00 0.00 0.00 0.00 0.00 0.00 0.00 0.00 0.01 0.01 0.00 0.00 0.00 0.00 0.00 0.00 0.00 0.00 0.00 0.00 0.00 0.00 0.00 0.00 0.00 0.00 0.00 0.00 0.00 0.00 0.00 0.00 0.00 0.00 0.00
0.01 0.01 0.00 0.00 0.00 0.00 0.00 0.00 0.00 0.00 0.00 0.00 0.00 0.00 0.00 0.00 0.00 0.00 0.00 0.00 0.00 0.00 0.00 0.00 0.00 0.00 0.00 0.00 0.00 0.00 0.00 0.00 0.00 0.00 0.00 0.00 0.00 0.00 0.00 0.00 0.00 0.00 0.00 0.00
0.00 0.00 0.00 0.00 0.00 0.00 0.00 0.00 0.00 0.00 0.00 0.00 0.00 0.00 0.00 0.00 0.00 0.00 0.00 0.00 0.00 0.00 0.00 0.00 0.00 0.00 0.00 0.00 0.00 0.00 0.00 0.00 0.00 0.00 0.00 0.00 0.00 0.00 0.00 0.00 0.00 0.00 0.00 0.00
0.00 0.00 0.00 0.00 0.00 0.00 0.00 0.00 0.00 0.00 0.00 0.00 0.00 0.00 0.00 0.00 0.00 0.00 0.00 0.00 0.00 0.00 0.00 0.00 0.00 0.00 0.00 0.00 0.00 0.00 0.00 0.00 0.00 0.00 0.00 0.00 0.00 0.00 0.00 0.00 0.00 0.00 0.00 0.00
0.00 0.00 0.00 0.00 0.00 0.00 0.00 0.00 0.00 0.00 0.00 0.00 0.00 0.00 0.00 0.00 0.00 0.00 0.00 0.00 0.00 0.00 0.00 0.00 0.00 0.00 0.00 0.00 0.00 0.00 0.00 0.00 0.00 0.00 0.00 0.00 0.00 0.00 0.00 0.00 0.00 0.00 0.00 0.00
0.00 0.00 0.00 0.00 0.00 0.00 0.00 0.00 0.00 0.00 0.00 0.00 0.00 0.00 0.00 0.00 0.00 0.00 0.00 0.00 0.00 0.00 0.00 0.00 0.00 0.00 0.00 0.00 0.00 0.00 0.00 0.00 0.00 0.00 0.00 0.00 0.00 0.00 0.00 0.00 0.00 0.00 0.00 0.00
0.00 0.00 0.00 0.00 0.00 0.00 0.00 0.00 0.00 0.00 0.00 0.00 0.00 0.00 0.00 0.00 0.00 0.00 0.00 0.00 0.00 0.00 0.00 0.00 0.00 0.00 0.00 0.00 0.00 0.00 0.00 0.00 0.00 0.00 0.00 0.00 0.00 0.00 0.00 0.00 0.00 0.00 0.00 0.00
0.00 0.00 0.00 0.00 0.00 0.00 0.00 0.00 0.00 0.00 0.00 0.00 0.00 0.00 0.00 0.00 0.00 0.00 0.00 0.00 0.00 0.00 0.00 0.00 0.00 0.00 0.00 0.00 0.00 0.00 0.00 0.00 0.00 0.00 0.00 0.00 0.00 0.00 0.00 0.00 0.00 0.00 0.00 0.00
0.00 0.00 0.00 0.00 0.00 0.00 0.00 0.00 0.00 0.00 0.00 0.00 0.00 0.00 0.00 0.00 0.00 0.00 0.00 0.00 0.00 0.00 0.00 0.00 0.00 0.00 0.00 0.00 0.00 0.00 0.00 0.00 0.00 0.00 0.00 0.00 0.00 0.00 0.00 0.00 0.00 0.00 0.00 0.00
0.00 0.00 0.00 0.00 0.00 0.00 0.00 0.00 0.00 0.00 0.00 0.00 0.00 0.00 0.00 0.00 0.00 0.00 0.00 0.00 0.00 0.00 0.00 0.00 0.00 0.00 0.00 0.00 0.00 0.00 0.00 0.00 0.00 0.00 0.00 0.00 0.00 0.00 0.00 0.00 0.00 0.00 0.00 0.00
0.00 0.00 0.00 0.00 0.00 0.00 0.00 0.00 0.00 0.00 0.00 0.00 0.00 0.00 0.00 0.00 0.00 0.00 0.00 0.00 0.00 0.00 0.00 0.00 0.00 0.00 0.00 0.00 0.00 0.00 0.00 0.00 0.00 0.00 0.00 0.00 0.00 0.00 0.00 0.00 0.00 0.00 0.00 0.00
0.00 0.00 0.00 0.00 0.00 0.00 0.00 0.00 0.00 0.00 0.00 0.00 0.00 0.00 0.00 0.00 0.00 0.00 0.00 0.00 0.00 0.00 0.00 0.00 0.00 0.00 0.00 0.00 0.00 0.00 0.00 0.00 0.00 0.00 0.00 0.00 0.00 0.00 0.00 0.00 0.00 0.00 0.00 0.00
0.00 0.00 0.00 0.00 0.00 0.00 0.00 0.00 0.00 0.00 0.00 0.00 0.00 0.00 0.00 0.00 0.00 0.00 0.00 0.00 0.00 0.00 0.00 0.00 0.00 0.00 0.00 0.00 0.00 0.00 0.00 0.00 0.00 0.00 0.00 0.00 0.00 0.00 0.00 0.00 0.00 0.00 0.00 0.00
0.00 0.00 0.00 0.00 0.00 0.00 0.00 0.00 0.00 0.00 0.00 0.00 0.00 0.00 0.00 0.00 0.00 0.00 0.00 0.00 0.00 0.00 0.00 0.00 0.00 0.00 0.00 0.00 0.00 0.00 0.00 0.00 0.00 0.00 0.00 0.00 0.00 0.00 0.00 0.00 0.00 0.00 0.00 0.00
0.00 0.00 0.00 0.00 0.00 0.00 0.00 0.00 0.00 0.00 0.00 0.00 0.00 0.00 0.00 0.00 0.00 0.00 0.00 0.00 0.00 0.00 0.00 0.00 0.00 0.00 0.00 0.00 0.00 0.00 0.00 0.00 0.00 0.00 0.00 0.00 0.00 0.00 0.00 0.00 0.00 0.00 0.00 0.00
0.00 0.00 0.00 0.00 0.00 0.00 0.00 0.00 0.00 0.00 0.00 0.00 0.00 0.00 0.00 0.00 0.00 0.00 0.00 0.00 0.00 0.00 0.00 0.00 0.00 0.00 0.00 0.00 0.00 0.00 0.00 0.00 0.00 0.00 0.00 0.00 0.00 0.00 0.00 0.00 0.00 0.00 0.00 0.00
0.00 0.00 0.00 0.00 0.00 0.00 0.00 0.00 0.00 0.00 0.00 0.00 0.00 0.00 0.00 0.00 0.00 0.00 0.00 0.00 0.00 0.00 0.00 0.00 0.00 0.00 0.00 0.00 0.00 0.00 0.00 0.00 0.00 0.00 0.00 0.00 0.00 0.00 0.00 0.00 0.00 0.00 0.00 0.00
0.00 0.00 0.00 0.00 0.00 0.00 0.00 0.00 0.00 0.00 0.00 0.00 0.00 0.00 0.00 0.00 0.00 0.00 0.00 0.00 0.00 0.00 0.00 0.00 0.00 0.00 0.00 0.00 0.00 0.00 0.00 0.00 0.00 0.00 0.00 0.00 0.00 0.00 0.00 0.00 0.00 0.00 0.00 0.00
0.00 0.00 0.00 0.00 0.00 0.00 0.00 0.00 0.00 0.00 0.00 0.00 0.00 0.00 0.00 0.00 0.00 0.00 0.00 0.00 0.00 0.00 0.00 0.00 0.00 0.00 0.00 0.00 0.00 0.00 0.00 0.00 0.00 0.00 0.00 0.00 0.00 0.00 0.00 0.00 0.00 0.00 0.00 0.00
0.00 0.00 0.00 0.00 0.00 0.00 0.00 0.00 0.00 0.00 0.00 0.00 0.00 0.00 0.00 0.00 0.00 0.00 0.00 0.00 0.00 0.00 0.00 0.00 0.00 0.00 0.00 0.00 0.00 0.00 0.00 0.00 0.00 0.00 0.00 0.00 0.00 0.00 0.00 0.00 0.00 0.00 0.00 0.00
0.00 0.00 0.00 0.00 0.00 0.00 0.00 0.00 0.00 0.00 0.00 0.00 0.00 0.00 0.00 0.00 0.00 0.00 0.00 0.00 0.00 0.00 0.00 0.00 0.00 0.00 0.00 0.00 0.00 0.00 0.00 0.00 0.00 0.00 0.00 0.00 0.00 0.00 0.00 0.00 0.00 0.00 0.00 0.00
0.00 0.00 0.00 0.00 0.00 0.00 0.00 0.00 0.00 0.00 0.00 0.00 0.00 0.00 0.00 0.00 0.00 0.00 0.00 0.00 0.00 0.00 0.00 0.00 0.00 0.00 0.00 0.00 0.00 0.00 0.00 0.00 0.00 0.00 0.00 0.00 0.00 0.00 0.00 0.00 0.00 0.00 0.00 0.00
0.00 0.00 0.00 0.00 0.00 0.00 0.00 0.00 0.00 0.00 0.00 0.00 0.00 0.00 0.00 0.00 0.00 0.00 0.00 0.00 0.00 0.00 0.00 0.00 0.00 0.00 0.00 0.00 0.00 0.00 0.00 0.00 0.00 0.00 0.00 0.00 0.00 0.00 0.00 0.01 0.01 0.01 0.01 0.01
0.00 0.00 0.00 0.00 0.00 0.00 0.00 0.00 0.00 0.00 0.00 0.00 0.00 0.00 0.00 0.00 0.00 0.00 0.00 0.00 0.00 0.00 0.00 0.00 0.00 0.00 0.00 0.00 0.00 0.00 0.00 0.00 0.01 0.01 0.01 0.01 0.01 0.01 0.01 0.01 0.01 0.01 0.01 0.01
MSLP
1016.00 1016.24 1016.24 1016.00 1015.55 1014.93 1014.22 1013.48 1012.78 1012.20 1011.76 1011.51 1011.47 1011.63 1011.97 1012.45 1013.03 1013.68 1014.36 1015.03 1015.69 1016.32 1016.91 1017.49 1018.06 1018.63 1019.20 1019.78 1020.35 1020.91 1021.44 1021.94 1022.37 1022.75 1023.07 1023.32 1023.52 1023.68 1023.81 1023.92 1024.02 1024.11 1024.19 1024.27
1015.52 1015.69 1015.62 1015.32 1014.83 1014.19 1013.48 1012.77 1012.12 1011.57 1011.18 1010.96 1010.92 1011.06 1011.36 1011.78 1012.30 1012.89 1013.52 1014.18 1014.85 1015.52 1016.19 1016.86 1017.53 1018.21 1018.88 1019.54 1020.19 1020.80 1021.37 1021.88 1022.34 1022.74 1023.07 1023.35 1023.58 1023.76 1023.92 1024.06 1024.17 1024.28 1024.37 1024.45
1014.93 1015.02 1014.87 1014.52 1014.00 1013.36 1012.67 1012.00 1011.39 1010.89 1010.53 1010.32 1010.28 1010.39 1010.63 1010.99 1011.44 1011.96 1012.55 1013.19 1013.87 1014.59 1015.34 1016.10 1016.88 1017.67 1018.44 1019.19 1019.90 1020.57 1021.17 1021.71 1022.19 1022.61 1022.96 1023.26 1023.52 1023.73 1023.92 1024.08 1024.22 1024.33 1024.43 1024.51
1014.25 1014.25 1014.04 1013.65 1013.11 1012.48 1011.82 1011.19 1010.63 1010.17 1009.84 1009.65 1009.60 1009.67 1009.86 1010.15 1010.53 1011.00 1011.55 1012.18 1012.87 1013.63 1014.44 1015.29 1016.16 1017.04 1017.90 1018.72 1019.49 1020.20 1020.84 1021.41 1021.91 1022.34 1022.72 1023.05 1023.33 1023.58 1023.80 1023.99 1024.15 1024.27 1024.37 1024.44
1013.52 1013.44 1013.17 1012.75 1012.20 1011.60 1010.98 1010.40 1009.89 1009.48 1009.18 1009.00 1008.94 1008.99 1009.13 1009.37 1009.70 1010.12 1010.64 1011.24 1011.94 1012.73 1013.58 1014.48 1015.42 1016.36 1017.28 1018.16 1018.97 1019.71 1020.38 1020.97 1021.49 1021.95 1022.36 1022.72 1023.04 1023.32 1023.57 1023.79 1023.97 1024.10 1024.20 1024.26
1012.74 1012.59 1012.29 1011.86 1011.33 1010.77 1010.20 1009.68 1009.23 1008.86 1008.60 1008.44 1008.38 1008.41 1008.53 1008.74 1009.03 1009.41 1009.89 1010.48 1011.17 1011.95 1012.82 1013.74 1014.70 1015.66 1016.61 1017.51 1018.35 1019.11 1019.79 1020.41 1020.95 1021.44 1021.88 1022.28 1022.64 1022.96 1023.25 1023.50 1023.70 1023.84 1023.94 1024.00
1011.89 1011.71 1011.40 1010.99 1010.51 1010.00 1009.50 1009.05 1008.66 1008.35 1008.13 1008.00 1007.96 1007.99 1008.10 1008.29 1008.56 1008.92 1009.37 1009.93 1010.59 1011.35 1012.18 1013.09 1014.02 1014.97 1015.91 1016.80 1017.63 1018.40 1019.10 1019.73 1020.31 1020.83 1021.31 1021.75 1022.15 1022.52 1022.85 1023.13 1023.35 1023.52 1023.62 1023.68
1010.97 1010.79 1010.50 1010.14 1009.73 1009.30 1008.88 1008.50 1008.19 1007.94 1007.78 1007.69 1007.68 1007.73 1007.85 1008.04 1008.30 1008.63 1009.06 1009.58 1010.19 1010.89 1011.67 1012.51 1013.39 1014.29 1015.18 1016.03 1016.85 1017.61 1018.32 1018.97 1019.57 1020.13 1020.66 1021.14 1021.59 1022.01 1022.37 1022.68 1022.93 1023.12 1023.25 1023.31
1009.97 1009.82 1009.59 1009.30 1008.97 1008.63 1008.31 1008.02 1007.79 1007.62 1007.51 1007.48 1007.50 1007.59 1007.73 1007.93 1008.18 1008.51 1008.90 1009.37 1009.92 1010.54 1011.24 1011.99 1012.79 1013.60 1014.42 1015.23 1016.01 1016.76 1017.47 1018.14 1018.77 1019.37 1019.94 1020.47 1020.96 1021.42 1021.82 1022.16 1022.44 1022.66 1022.81 1022.90
1008.91 1008.81 1008.66 1008.46 1008.23 1008.00 1007.77 1007.58 1007.43 1007.33 1007.29 1007.31 1007.38 1007.51 1007.67 1007.89 1008.14 1008.45 1008.80 1009.22 1009.69 1010.23 1010.83 1011.48 1012.18 1012.90 1013.65 1014.39 1015.14 1015.87 1016.58 1017.26 1017.93 1018.56 1019.16 1019.73 1020.26 1020.75 1021.18 1021.56 1021.86 1022.11 1022.29 1022.41
1007.85 1007.81 1007.74 1007.64 1007.52 1007.39 1007.27 1007.16 1007.09 1007.06 1007.08 1007.15 1007.26 1007.42 1007.61 1007.83 1008.08 1008.37 1008.68 1009.04 1009.44 1009.89 1010.39 1010.94 1011.54 1012.17 1012.84 1013.54 1014.24 1014.96 1015.67 1016.37 1017.05 1017.71 1018.34 1018.94 1019.49 1020.00 1020.45 1020.85 1021.18 1021.46 1021.67 1021.83
1006.87 1006.89 1006.90 1006.89 1006.87 1006.83 1006.80 1006.77 1006.77 1006.80 1006.87 1006.97 1007.11 1007.28 1007.49 1007.71 1007.94 1008.20 1008.47 1008.77 1009.10 1009.46 1009.87 1010.33 1010.85 1011.41 1012.02 1012.66 1013.34 1014.04 1014.75 1015.46 1016.15 1016.83 1017.47 1018.08 1018.65 1019.16 1019.63 1020.04 1020.39 1020.69 1020.94 1021.13
1006.04 1006.12 1006.19 1006.27 1006.33 1006.37 1006.41 1006.45 1006.49 1006.56 1006.65 1006.77 1006.92 1007.09 1007.28 1007.48 1007.70 1007.91 1008.14 1008.38 1008.64 1008.94 1009.28 1009.66 1010.11 1010.62 1011.18 1011.80 1012.45 1013.14 1013.85 1014.56 1015.25 1015.93 1016.57 1017.18 1017.74 1018.25 1018.72 1019.14 1019.50 1019.82 1020.10 1020.32
1005.43 1005.55 1005.69 1005.82 1005.94 1006.05 1006.13 1006.21 1006.29 1006.37 1006.47 1006.58 1006.71 1006.86 1007.02 1007.19 1007.35 1007.53 1007.70 1007.89 1008.09 1008.33 1008.61 1008.95 1009.36 1009.82 1010.36 1010.96 1011.60 1012.28 1012.97 1013.67 1014.36 1015.02 1015.65 1016.24 1016.78 1017.29 1017.75 1018.16 1018.54 1018.87 1019.16 1019.41
1005.07 1005.22 1005.40 1005.58 1005.74 1005.88 1006.00 1006.10 1006.18 1006.26 1006.34 1006.42 1006.52 1006.62 1006.74 1006.85 1006.96 1007.08 1007.20 1007.34 1007.50 1007.69 1007.94 1008.24 1008.62 1009.07 1009.58 1010.16 1010.79 1011.46 1012.14 1012.82 1013.48 1014.12 1014.72 1015.28 1015.80 1016.29 1016.73 1017.14 1017.52 1017.87 1018.17 1018.44
1004.93 1005.11 1005.32 1005.53 1005.72 1005.88 1006.00 1006.10 1006.18 1006.23 1006.28 1006.33 1006.38 1006.42 1006.47 1006.53 1006.58 1006.64 1006.71 1006.80 1006.92 1007.08 1007.30 1007.59 1007.94 1008.37 1008.88 1009.44 1010.05 1010.69 1011.34 1011.99 1012.62 1013.22 1013.79 1014.31 1014.81 1015.27 1015.70 1016.11 1016.49 1016.84 1017.15 1017.43
1004.96 1005.17 1005.40 1005.62 1005.83 1005.99 1006.12 1006.21 1006.26 1006.29 1006.30 1006.30 1006.30 1006.29 1006.28 1006.27 1006.27 1006.27 1006.29 1006.34 1006.43 1006.56 1006.76 1007.03 1007.37 1007.78 1008.26 1008.80 1009.38 1009.98 1010.59 1011.19 1011.77 1012.33 1012.85 1013.34 1013.80 1014.24 1014.66 1015.06 1015.44 1015.80 1016.12 1016.39
1005.08 1005.32 1005.57 1005.80 1006.01 1006.17 1006.29 1006.36 1006.40 1006.40 1006.38 1006.33 1006.28 1006.22 1006.16 1006.10 1006.05 1006.01 1005.99 1006.00 1006.06 1006.17 1006.35 1006.60 1006.91 1007.30 1007.75 1008.24 1008.77 1009.32 1009.87 1010.41 1010.93 1011.43 1011.90 1012.36 1012.79 1013.21 1013.61 1014.01 1014.39 1014.75 1015.07 1015.35
1005.23 1005.50 1005.76 1006.00 1006.20 1006.35 1006.46 1006.52 1006.53 1006.52 1006.47 1006.40 1006.32 1006.23 1006.13 1006.03 1005.94 1005.87 1005.82 1005.81 1005.84 1005.93 1006.08 1006.30 1006.58 1006.92 1007.32 1007.75 1008.21 1008.69 1009.16 1009.63 1010.08 1010.52 1010.94 1011.35 1011.75 1012.15 1012.55 1012.94 1013.32 1013.68 1014.00 1014.28
1005.38 1005.67 1005.94 1006.17 1006.35 1006.49 1006.59 1006.63 1006.64 1006.62 1006.56 1006.48 1006.39 1006.28 1006.17 1006.05 1005.94 1005.85 1005.78 1005.75 1005.75 1005.81 1005.93 1006.10 1006.33 1006.62 1006.94 1007.30 1007.67 1008.06 1008.44 1008.82 1009.20 1009.56 1009.93 1010.30 1010.67 1011.06 1011.44 1011.83 1012.22 1012.58 1012.90 1013.17
1005.53 1005.82 1006.08 1006.30 1006.47 1006.59 1006.67 1006.71 1006.72 1006.69 1006.64 1006.57 1006.48 1006.37 1006.26 1006.14 1006.02 1005.92 1005.83 1005.78 1005.76 1005.78 1005.86 1005.98 1006.14 1006.35 1006.59 1006.85 1007.13 1007.41 1007.70 1007.99 1008.28 1008.58 1008.89 1009.22 1009.57 1009.93 1010.31 1010.70 1011.08 1011.44 1011.77 1012.04
1005.72 1006.00 1006.24 1006.43 1006.58 1006.68 1006.74 1006.78 1006.78 1006.76 1006.72 1006.66 1006.58 1006.49 1006.38 1006.27 1006.15 1006.04 1005.94 1005.86 1005.81 1005.79 1005.81 1005.87 1005.96 1006.08 1006.22 1006.38 1006.55 1006.74 1006.93 1007.13 1007.34 1007.57 1007.83 1008.12 1008.44 1008.79 1009.17 1009.55 1009.93 1010.30 1010.62 1010.90
1005.99 1006.25 1006.46 1006.61 1006.72 1006.80 1006.85 1006.88 1006.88 1006.87 1006.84 1006.79 1006.73 1006.64 1006.55 1006.43 1006.31 1006.19 1006.07 1005.96 1005.87 1005.80 1005.76 1005.74 1005.75 1005.78 1005.83 1005.89 1005.96 1006.05 1006.15 1006.27 1006.41 1006.59 1006.80 1007.06 1007.35 1007.69 1008.06 1008.44 1008.82 1009.18 1009.51 1009.80
1006.40 1006.61 1006.78 1006.89 1006.97 1007.02 1007.05 1007.06 1007.06 1007.05 1007.02 1006.98 1006.92 1006.84 1006.74 1006.62 1006.48 1006.34 1006.19 1006.04 1005.90 1005.78 1005.67 1005.58 1005.51 1005.46 1005.42 1005.39 1005.38 1005.38 1005.41 1005.46 1005.54 1005.67 1005.85 1006.08 1006.36 1006.68 1007.03 1007.41 1007.79 1008.15 1008.49 1008.78
1006.95 1007.11 1007.22 1007.30 1007.34 1007.36 1007.37 1007.36 1007.35 1007.34 1007.30 1007.25 1007.18 1007.09 1006.97 1006.83 1006.66 1006.48 1006.29 1006.10 1005.91 1005.73 1005.56 1005.41 1005.27 1005.14 1005.03 1004.93 1004.85 1004.79 1004.76 1004.76 1004.80 1004.89 1005.04 1005.25 1005.51 1005.82 1006.16 1006.53 1006.90 1007.26 1007.60 1007.89
1007.60 1007.72 1007.79 1007.82 1007.83 1007.82 1007.81 1007.79 1007.76 1007.73 1007.68 1007.61 1007.51 1007.39 1007.23 1007.05 1006.85 1006.62 1006.39 1006.15 1005.91 1005.67 1005.45 1005.24 1005.05 1004.87 1004.70 1004.56 1004.43 1004.33 1004.26 1004.23 1004.24 1004.31 1004.44 1004.62 1004.87 1005.16 1005.49 1005.84 1006.20 1006.55 1006.88 1007.17
1008.31 1008.38 1008.41 1008.42 1008.40 1008.38 1008.34 1008.30 1008.25 1008.19 1008.12 1008.01 1007.88 1007.72 1007.52 1007.30 1007.04 1006.77 1006.49 1006.21 1005.92 1005.65 1005.39 1005.14 1004.91 1004.70 1004.50 1004.33 1004.18 1004.05 1003.96 1003.91 1003.90 1003.95 1004.06 1004.23 1004.45 1004.72 1005.02 1005.35 1005.69 1006.03 1006.34 1006.62
Thickness
5707 5710 5710 5711 5712 5712 5713 5722 5721 5730 5735 5745 5752 5752 5752 5750 5747 5743 5742 5740 5739 5736 5735 5732 5730 5728 5726 5722 5720 5718 5715 5713 5711 5709 5707 5704 5701 5700 5698 5696 5695 5693 5691 5690
5703 5708 5708 5708 5716 5718 5718 5724 5727 5731 5737 5756 5758 5756 5752 5749 5745 5743 5742 5741 5740 5738 5735 5733 5730 5728 5724 5720 5718 5716 5713 5710 5707 5705 5702 5699 5697 5695 5693 5691 5689 5687 5686 5684
5699 5706 5704 5703 5721 5723 5724 5731 5732 5730 5743 5754 5750 5750 5751 5751 5747 5747 5745 5743 5741 5740 5737 5734 5733 5729 5723 5720 5716 5713 5711 5707 5703 5701 5697 5695 5693 5690 5687 5685 5683 5681 5680 5678
5701 5700 5687 5721 5740 5737 5732 5736 5742 5745 5750 5752 5753 5754 5755 5755 5752 5750 5747 5744 5743 5741 5738 5735 5732 5727 5723 5718 5714 5711 5707 5703 5700 5697 5693 5690 5687 5684 5683 5682 5678 5675 5673 5672
5701 5696 5705 5725 5734 5733 5729 5734 5750 5748 5749 5750 5751 5748 5751 5756 5756 5755 5752 5749 5746 5743 5739 5734 5730 5726 5720 5715 5711 5707 5703 5700 5696 5693 5689 5686 5682 5679 5677 5675 5672 5670 5668 5665
5698 5692 5694 5722 5738 5741 5734 5728 5753 5752 5749 5748 5743 5739 5751 5759 5756 5754 5751 5748 5744 5740 5736 5731 5727 5722 5717 5712 5708 5704 5700 5697 5693 5690 5685 5681 5678 5675 5672 5669 5666 5664 5661 5658
5696 5695 5710 5733 5733 5732 5717 5729 5750 5752 5751 5748 5746 5754 5758 5757 5753 5751 5748 5744 5740 5736 5732 5728 5724 5718 5713 5709 5706 5702 5697 5692 5688 5684 5680 5677 5673 5669 5666 5663 5660 5658 5655 5652
5697 5692 5704 5730 5726 5726 5734 5747 5748 5749 5750 5748 5750 5752 5751 5750 5747 5745 5741 5738 5734 5730 5726 5723 5719 5714 5710 5705 5702 5696 5690 5686 5682 5678 5674 5670 5666 5663 5660 5656 5653 5651 5648 5646
5708 5712 5724 5726 5729 5735 5736 5739 5743 5745 5746 5746 5744 5744 5744 5743 5741 5739 5736 5732 5729 5725 5720 5716 5714 5711 5706 5701 5696 5690 5684 5680 5676 5672 5668 5665 5660 5656 5653 5650 5647 5645 5642 5639
5705 5715 5720 5721 5725 5727 5730 5732 5737 5739 5741 5741 5739 5740 5738 5737 5735 5733 5730 5727 5724 5720 5715 5711 5709 5705 5702 5697 5691 5685 5680 5675 5671 5667 5663 5659 5654 5651 5647 5644 5640 5637 5634 5631
5701 5711 5713 5717 5719 5722 5725 5729 5731 5734 5735 5735 5735 5734 5734 5732 5730 5728 5725 5722 5719 5716 5712 5708 5704 5699 5696 5691 5686 5681 5676 5671 5666 5662 5658 5653 5649 5645 5641 5637 5634 5629 5626 5623
5697 5707 5708 5711 5715 5717 5718 5720 5724 5725 5727 5728 5728 5728 5728 5726 5724 5722 5719 5717 5713 5710 5706 5703 5699 5694 5689 5685 5681 5676 5671 5666 5661 5656 5651 5646 5642 5637 5630 5627 5622 5617 5613 5610
5699 5702 5703 5705 5707 5709 5711 5714 5717 5718 5719 5720 5721 5721 5720 5718 5716 5714 5712 5710 5707 5704 5701 5697 5693 5688 5684 5679 5674 5670 5666 5661 5655 5650 5645 5640 5635 5631 5626 5619 5612 5608 5604 5600
5689 5690 5691 5695 5697 5701 5704 5706 5708 5710 5711 5711 5712 5711 5710 5709 5707 5705 5704 5703 5700 5697 5693 5690 5686 5682 5677 5672 5667 5663 5659 5653 5648 5642 5638 5633 5629 5624 5620 5616 5611 5606 5598 5592
5678 5681 5684 5686 5689 5691 5693 5695 5697 5699 5700 5701 5701 5700 5700 5699 5698 5697 5695 5693 5691 5688 5684 5682 5678 5674 5669 5664 5659 5655 5651 5646 5640 5635 5630 5625 5621 5616 5612 5607 5603 5599 5594 5588
5669 5671 5673 5675 5678 5681 5684 5685 5687 5689 5690 5691 5691 5691 5691 5690 5688 5687 5685 5683 5681 5679 5677 5673 5670 5666 5660 5656 5651 5646 5641 5635 5630 5625 5621 5616 5612 5607 5603 5598 5594 5590 5586 5581
5656 5659 5661 5663 5667 5670 5673 5676 5679 5681 5682 5682 5682 5681 5680 5679 5677 5676 5674 5674 5673 5671 5668 5665 5661 5656 5650 5646 5642 5637 5632 5626 5618 5615 5612 5608 5603 5599 5594 5589 5585 5581 5577 5572
5648 5651 5654 5657 5659 5661 5663 5665 5668 5670 5671 5672 5672 5671 5670 5669 5668 5667 5665 5663 5661 5659 5657 5655 5650 5645 5640 5636 5631 5627 5622 5617 5611 5607 5603 5598 5594 5589 5585 5580 5576 5571 5566 5561
5635 5638 5642 5645 5647 5650 5652 5654 5656 5658 5659 5660 5660 5660 5660 5659 5658 5657 5655 5652 5650 5648 5646 5643 5637 5634 5630 5625 5619 5614 5611 5607 5602 5597 5593 5586 5581 5578 5574 5570 5565 5561 5556 5551
5623 5626 5629 5632 5635 5637 5639 5642 5644 5646 5647 5648 5648 5648 5647 5647 5646 5644 5643 5641 5639 5638 5635 5630 5626 5623 5619 5613 5606 5604 5600 5596 5591 5587 5582 5577 5572 5568 5564 5559 5555 5550 5546 5541
5609 5612 5615 5618 5621 5624 5626 5629 5631 5633 5635 5636 5636 5636 5636 5635 5634 5632 5630 5628 5627 5623 5620 5615 5613 5610 5606 5601 5594 5592 5589 5584 5580 5576 5571 5567 5562 5558 5554 5549 5544 5540 5535 5531
5594 5597 5600 5604 5607 5610 5613 5616 5618 5620 5621 5622 5623 5623 5623 5622 5621 5620 5619 5617 5615 5609 5607 5604 5602 5597 5593 5587 5583 5581 5577 5573 5569 5564 5560 5555 5551 5547 5543 5538 5533 5529 5524 5519
5578 5582 5585 5588 5592 5596 5599 5601 5604 5606 5607 5608 5609 5610 5610 5610 5609 5607 5606 5604 5601 5596 5594 5592 5588 5583 5578 5575 5573 5569 5565 5561 5557 5552 5548 5543 5539 5535 5531 5527 5522 5517 5512 5507
5563 5566 5569 5572 5576 5580 5583 5586 5588 5591 5592 5594 5595 5595 5595 5595 5595 5594 5593 5589 5585 5582 5581 5578 5573 5569 5564 5564 5561 5558 5554 5549 5544 5540 5535 5531 5527 5522 5518 5514 5509 5505 5500 5495
5548 5550 5553 5557 5560 5564 5567 5569 5572 5574 5576 5578 5580 5580 5580 5580 5580 5579 5577 5574 5571 5567 5567 5564 5559 5555 5552 5552 5549 5545 5541 5536 5532 5526 5522 5517 5513 5508 5504 5501 5496 5492 5487 5482
5533 5536 5538 5542 5545 5547 5550 5553 5556 5558 5560 5562 5563 5563 5564 5563 5563 5562 5561 5559 5557 5553 5552 5550 5546 5542 5541 5539 5535 5531 5527 5522 5517 5512 5508 5503 5499 5494 5491 5486 5482 5478 5474 5469
5519 5522 5524 5527 5530 5532 5534 5537 5540 5542 5543 5545 5546 5547 5547 5547 5547 5546 5544 5543 5542 5539 5538 5536 5533 5530 5527 5524 5520 5516 5512 5508 5503 5499 5494 5490 5485 5481 5477 5473 5469 5464 5460 5456